Le nostre stazioni meteo in Italia

Pubblicità
Il mio iltempo24.it
Decimomannu, Italia (16546): Temperatura & dewpoint: 17.01.2019 05:00:00 - 23.01.2019 05:00:00 (CET)Decimomannu, Italia (16546): velocità del vento: 17.01.2019 05:00:00 - 23.01.2019 05:00:00 (CET)Decimomannu, Italia (16546): direzione del vento: 17.01.2019 05:00:00 - 23.01.2019 05:00:00 (CET)Decimomannu, Italia (16546): reduced air pressure: 17.01.2019 05:00:00 - 23.01.2019 05:00:00 (CET)Decimomannu, Italia (16546): visibility: 17.01.2019 05:00:00 - 23.01.2019 05:00:00 (CET)
Data & Tempo tt [°C] td [°C] ff [km/h] ff [kn] dd ppp [hPa] vv [km]
23.01.2019 05:00:00 - - - - - - -
23.01.2019 04:00:00 4,8 3,0 8 4 S 1003,1 12
23.01.2019 03:00:00 5,0 3,0 5 3 S - 10
23.01.2019 02:00:00 5,0 3,0 4 2 ENE - 10
23.01.2019 01:00:00 3,8 2,2 9 5 O 1005,8 12
23.01.2019 00:00:00 4,0 2,0 5 3 ESE - 10
22.01.2019 23:00:00 4,0 2,0 13 7 NE - 10
22.01.2019 22:00:00 3,8 2,0 2 1 NNO 1006,0 12
22.01.2019 21:00:00 4,0 3,0 5 3 O - 10
22.01.2019 20:00:00 4,0 3,0 2 1 O - 10
22.01.2019 19:00:00 6,8 4,6 8 4 NO 1006,3 20
22.01.2019 18:00:00 9,0 6,0 9 5 O - 10
22.01.2019 17:00:00 9,0 6,0 13 7 ONO - 10
22.01.2019 16:00:00 9,6 6,7 22 12 ONO 1006,9 20
22.01.2019 15:00:00 10,0 7,0 22 12 NO - 10
22.01.2019 14:00:00 9,0 7,0 34 18 ONO - 10
22.01.2019 13:00:00 10,0 6,7 18 10 O 1008,9 12
22.01.2019 12:00:00 9,0 7,0 16 9 ONO - 10
22.01.2019 11:00:00 10,0 7,0 21 11 NNO - 10
22.01.2019 10:00:00 9,2 6,8 13 7 ONO 1009,9 20
22.01.2019 09:00:00 7,0 5,0 13 7 NO - 10
22.01.2019 08:00:00 7,0 5,0 15 8 O - 10
22.01.2019 07:00:00 7,0 5,3 22 12 O 1009,1 8
22.01.2019 06:00:00 6,0 5,0 15 8 ONO - 10
22.01.2019 05:00:00 7,0 5,0 4 2 NNO - 10
22.01.2019 04:00:00 6,0 4,2 8 4 NNO 1009,1 12
22.01.2019 03:00:00 5,0 4,0 8 4 NNO - 10
22.01.2019 02:00:00 6,0 4,0 8 4 N - 10
22.01.2019 01:00:00 8,0 6,1 5 3 NNE 1009,1 8
22.01.2019 00:00:00 9,0 7,0 21 11 ONO - 8
21.01.2019 23:00:00 8,0 6,0 22 12 NNO - 8
21.01.2019 22:00:00 8,8 7,3 22 12 NNO 1007,8 8
21.01.2019 21:00:00 9,0 7,0 26 14 NNO - 8
21.01.2019 20:00:00 9,0 7,0 22 12 NNO - 8
21.01.2019 19:00:00 8,8 7,1 18 10 NNO 1006,3 8
21.01.2019 18:00:00 9,0 7,0 21 11 ONO - 8
21.01.2019 17:00:00 9,0 7,0 28 15 NNO - 7
21.01.2019 16:00:00 9,2 7,7 29 16 NO 1004,9 12
21.01.2019 15:00:00 10,0 9,0 15 8 NO - 10
21.01.2019 14:00:00 12,0 10,0 5 3 N - 10
21.01.2019 13:00:00 11,0 9,4 8 4 ONO 1004,8 10
21.01.2019 12:00:00 11,0 9,0 5 3 O - 10
21.01.2019 11:00:00 11,0 10,0 4 2 SSO - 10
21.01.2019 10:00:00 10,0 8,4 8 4 E 1005,8 8
21.01.2019 09:00:00 9,0 7,0 15 8 E - 6
21.01.2019 08:00:00 9,0 8,0 15 8 O - 6
21.01.2019 07:00:00 9,0 7,4 8 4 NE 1006,6 6
21.01.2019 06:00:00 9,0 8,0 5 3 NNE - 7
21.01.2019 05:00:00 10,0 8,0 8 4 ENE - 10
21.01.2019 04:00:00 10,0 8,1 13 7 E 1007,1 12
21.01.2019 03:00:00 10,0 8,0 9 5 E - 10
21.01.2019 02:00:00 9,0 8,0 9 5 E - 10
21.01.2019 01:00:00 9,4 7,5 11 6 E 1009,5 15
21.01.2019 00:00:00 9,0 7,0 11 6 E - 10
20.01.2019 23:00:00 9,0 7,0 11 6 E - 10
20.01.2019 22:00:00 8,0 6,5 5 3 ENE 1010,2 15
20.01.2019 21:00:00 8,0 7,0 5 3 ENE - 10
20.01.2019 20:00:00 9,0 7,0 8 4 ESE - 10
20.01.2019 19:00:00 9,0 7,8 11 6 E 1009,9 12
20.01.2019 18:00:00 10,0 9,0 8 4 E - 10
20.01.2019 17:00:00 11,0 10,0 11 6 SE - 10
20.01.2019 16:00:00 12,0 9,7 15 8 SSE 1009,8 12
20.01.2019 15:00:00 13,0 8,0 15 8 SSE - 10
20.01.2019 14:00:00 14,0 6,0 8 4 S - 10
20.01.2019 13:00:00 13,0 7,7 4 2 SSO 1011,6 20
20.01.2019 12:00:00 12,0 8,0 4 2 OSO - 10
20.01.2019 11:00:00 11,0 8,0 5 3 O - 10
20.01.2019 10:00:00 5,0 3,5 8 4 NNE 1012,9 12
20.01.2019 09:00:00 3,0 2,0 8 4 NNE - 10
20.01.2019 08:00:00 2,0 1,0 5 3 N - 10
20.01.2019 07:00:00 2,4 0,9 4 2 NO 1012,0 10
20.01.2019 06:00:00 3,0 1,0 8 4 ENE - 10
20.01.2019 05:00:00 4,0 3,0 5 3 NO - 10
20.01.2019 04:00:00 4,0 2,5 5 3 NNO 1012,2 10
20.01.2019 03:00:00 4,0 3,0 4 2 ONO - 10
20.01.2019 02:00:00 3,0 2,0 11 6 N - 10
20.01.2019 01:00:00 3,6 2,1 8 4 OSO 1012,7 10
20.01.2019 00:00:00 5,0 3,0 5 3 N - 10
19.01.2019 23:00:00 6,0 4,0 4 2 NE - 10
19.01.2019 22:00:00 7,0 5,5 5 3 ENE 1012,9 12
19.01.2019 21:00:00 7,0 6,0 4 2 NE - 10
19.01.2019 20:00:00 9,0 8,0 5 3 E - 10
19.01.2019 19:00:00 9,6 8,1 8 4 ENE 1012,8 15
19.01.2019 18:00:00 10,0 9,0 5 3 ENE - 10
19.01.2019 17:00:00 11,0 10,0 4 2 NE - 10
19.01.2019 16:00:00 11,0 7,5 2 1 NE 1013,2 15
19.01.2019 15:00:00 12,0 8,0 9 5 SSE - 10
19.01.2019 14:00:00 12,0 8,0 4 2 SSO - 10
19.01.2019 13:00:00 11,2 6,9 4 2 SSO 1014,6 20
19.01.2019 12:00:00 10,0 7,0 4 2 SSE - 10
19.01.2019 11:00:00 8,0 6,0 8 4 NNO - 10
19.01.2019 10:00:00 5,0 3,5 2 1 NO 1015,2 12
19.01.2019 09:00:00 3,0 1,0 4 2 OSO - 10
19.01.2019 08:00:00 2,0 1,0 8 4 NNO - 10
19.01.2019 07:00:00 2,4 1,2 4 2 ENE 1014,6 12
19.01.2019 06:00:00 2,0 1,0 9 5 N - 10
19.01.2019 05:00:00 2,0 1,0 2 1 SO - 10
19.01.2019 04:00:00 3,0 1,8 8 4 NO 1015,2 12
19.01.2019 03:00:00 3,0 2,0 8 4 N - 10
19.01.2019 02:00:00 4,0 3,0 4 2 ONO - 10
19.01.2019 01:00:00 4,4 3,2 2 1 SO 1015,9 12
19.01.2019 00:00:00 6,0 5,0 5 3 NO - 10
18.01.2019 23:00:00 5,0 4,0 8 4 NNO - 10
18.01.2019 22:00:00 5,6 4,9 4 2 N 1015,2 12
18.01.2019 21:00:00 6,0 5,0 11 6 N - 10
18.01.2019 20:00:00 8,0 7,0 9 5 N - 10
18.01.2019 19:00:00 7,8 6,7 8 4 NO 1014,5 12
18.01.2019 18:00:00 10,0 8,0 13 7 NO - 10
18.01.2019 17:00:00 11,0 8,0 29 16 NNO - 10
18.01.2019 16:00:00 12,2 8,9 21 11 NO 1013,4 20
18.01.2019 15:00:00 13,0 11,0 29 16 NO - 10
18.01.2019 14:00:00 13,0 10,0 24 13 NNO - 10
18.01.2019 13:00:00 12,4 10,3 15 8 NO 1013,9 20
18.01.2019 12:00:00 10,0 8,0 8 4 ONO - 10
18.01.2019 11:00:00 7,0 5,0 5 3 NNO - 10
18.01.2019 10:00:00 5,4 3,9 2 1 SSO 1015,0 14
18.01.2019 09:00:00 4,0 3,0 2 1 OSO - 10
18.01.2019 08:00:00 4,0 3,0 8 4 NO - 3,0
18.01.2019 07:00:00 4,8 3,5 4 2 ONO 1014,1 8
18.01.2019 06:00:00 5,0 3,0 4 2 ONO - 7
18.01.2019 05:00:00 4,0 3,0 4 2 ONO - 7
18.01.2019 04:00:00 3,0 1,8 5 3 NNO 1014,7 12
18.01.2019 03:00:00 - - - - - - -
18.01.2019 02:00:00 - - - - - - -
18.01.2019 01:00:00 4,2 3,2 8 4 NO 1015,8 12
18.01.2019 00:00:00 5,0 4,0 8 4 NNO - 10
17.01.2019 23:00:00 5,0 4,0 8 4 NNO - 10
17.01.2019 22:00:00 6,0 5,1 8 4 NNE 1015,9 12
17.01.2019 21:00:00 8,0 7,0 4 2 N - 10
17.01.2019 20:00:00 10,0 9,0 5 3 NO - 10
17.01.2019 19:00:00 10,0 9,4 8 4 OSO 1014,9 12
17.01.2019 18:00:00 11,0 10,0 2 1 N - 10
17.01.2019 17:00:00 14,0 11,0 9 5 NNO - 10
17.01.2019 16:00:00 14,0 10,8 11 6 NO 1015,1 25
17.01.2019 15:00:00 14,0 12,0 8 4 N - 10
17.01.2019 14:00:00 15,0 11,0 9 5 NO - 10
17.01.2019 13:00:00 14,0 10,2 9 5 NNO 1015,9 20
17.01.2019 12:00:00 13,0 11,0 5 3 O - 10
17.01.2019 11:00:00 11,0 9,0 4 2 ONO - 9
17.01.2019 10:00:00 6,0 4,5 4 2 NO 1017,1 7
17.01.2019 09:00:00 3,0 2,0 4 2 NO - 3,0
17.01.2019 08:00:00 2,0 1,0 4 2 NNO - 3,0
17.01.2019 07:00:00 2,8 1,3 5 3 NNE 1017,0 7
17.01.2019 06:00:00 3,0 1,0 5 3 N - 7
17.01.2019 05:00:00 4,0 3,0 4 2 ONO - 10

tt = Temperatura
td = dewpoint
ff = velocità del vento
dd = direzione del vento
ppp = reduced air pressure
vv = visibility

Stazioni seguenti

WeatherPro
AMSI
MeteoEarth